[[{"header":{"parameterUnit":"m.s-1","parameterCategory":1,"la1":30.2991,"la2":30.254,"lo1":-89.0895,"lo2":-89.0444,"dy":0.0017,"dx":0.0017,"nx":28,"ny":28,"refTime":"2023-11-12T09:00:00:Z","depth":0,"parameterNumber":2,"parameterNumberName":"U-component_of_WINDS"},"data":[0,0,0,0,0,0,0,0,0,0,0,0,0,0,0,0,0,0,0,0,0,0,0,0,0,0,0,0,0,0,0,0,0,0,0,0,0,0,0,0,0,0,0,0,0,0,0,0,0,0,0,0,0,0,0,0,0,0,-3.0924,-3.0925,0,-3.1037,-3.1038,-3.1039,-3.0975,-3.0972,-3.0969,-3.0966,-3.1084,-3.109,-3.1096,0,0,0,0,0,0,0,0,0,0,0,0,0,-3.0655,-3.066,-3.0924,-3.0925,-3.0927,-3.1037,-3.1038,-3.104,-3.0976,-3.0972,-3.0968,-3.0964,-3.1082,-3.1089,-3.1097,0,0,0,0,0,0,0,0,0,0,0,0,0,-3.077,-3.0662,-3.0924,-3.0908,-3.0907,-3.1036,-3.1038,-3.104,-3.0976,-3.0972,-3.0967,-3.0962,-3.108,-3.1089,-3.1098,-3.1249,0,0,-3.1126,-3.113,0,0,0,0,0,0,0,0,-3.0764,-3.078,-3.0909,-3.0909,-3.0909,-3.0987,-3.0987,-3.111,-3.0978,-3.095,-3.0966,-3.096,-3.1056,-3.1067,-3.1098,-3.1255,-3.126,-3.1126,-3.1132,-3.1136,-3.1139,0,0,0,0,0,0,0,-3.0756,-3.0775,-3.0969,-3.0911,-3.0911,-3.0896,-3.0907,-3.101,-3.1028,-3.0952,-3.0948,-3.0962,-3.1055,-3.109,-3.1101,-3.1262,-3.1126,-3.1134,-3.114,-3.1144,-3.1549,-3.1554,0,0,0,0,0,0,-3.0748,-3.0769,-3.0965,-3.0972,-3.0823,-3.0905,-3.0917,-3.0967,-3.1027,-3.1032,-3.0966,-3.0959,-3.1076,-3.109,-3.1105,-3.1287,-3.1136,-3.1144,-3.115,-3.1544,-3.155,-3.1556,0,0,0,0,0,0,-3.0743,-3.0767,-3.096,-3.0869,-3.0893,-3.0914,-3.0971,-3.0972,-3.1006,-3.1037,-3.1041,-3.0998,-3.1073,-3.1092,-3.1214,-3.129,-3.1149,-3.1157,-3.1538,-3.1546,-3.1553,-3.1653,0,0,0,0,0,0,-3.0735,-3.0765,-3.0822,-3.0871,-3.0898,-3.1068,-3.0975,-3.0977,-3.1022,-3.1013,-3.1068,-3.1073,-3.1071,-3.1201,-3.1223,-3.13,-3.1164,-3.1531,-3.1541,-3.1551,-3.1643,-3.1663,-3.1681,0,0,0,0,0,-3.0726,-3.0846,-3.0826,-3.085,-3.097,-3.1072,-3.1087,-3.1082,-3.1028,-3.1087,-3.1106,-3.1071,-3.1278,-3.1214,-3.1238,-3.132,-3.1526,-3.1538,-3.155,-3.1635,-3.1659,-3.168,0,0,0,0,0,0,-3.0807,-3.0852,-3.083,-3.0969,-3.1017,-3.1061,-3.1134,-3.1108,-3.1173,-3.1163,-3.1154,-3.1167,-3.1294,-3.1319,-3.1246,-3.147,-3.1394,-3.1411,-3.145,-3.1474,-3.1492,-3.1484,-3.1172,0,0,0,0,0,-3.0841,-3.0919,-3.0955,-3.1074,-3.11,-3.1113,-3.1157,-3.1149,-3.1198,-3.1219,-3.1248,-3.1298,-3.1374,-3.1425,-3.1497,-3.1645,-3.1657,-3.1714,-3.1733,-3.1748,-3.1764,-3.1846,-3.1872,-3.1595,-3.1595,-3.1595,0,0,-3.0912,-3.0947,-3.0997,-3.1092,-3.1128,-3.121,-3.1131,-3.1221,-3.1282,-3.1233,-3.135,-3.1373,-3.1428,-3.1565,-3.1627,-3.1589,-3.1842,-3.1763,-3.1775,-3.1783,-3.1861,-3.1887,-3.191,-3.1603,-3.1602,-3.16,0,0,-3.1085,-3.1118,-3.1222,-3.1259,-3.1315,-3.1323,-3.1348,-3.1395,-3.1409,-3.1526,-3.1491,-3.1564,-3.1695,-3.1736,-3.1775,-3.1962,-3.1933,-3.1986,-3.2085,-3.2165,-3.2187,-3.2206,-3.2275,-3.23,-3.2001,-3.2001,-3.2001,0,-3.1167,-3.1289,-3.1279,-3.1372,-3.1415,-3.1373,-3.1479,-3.1516,-3.1592,-3.1624,-3.158,-3.1745,-3.1779,-3.1925,-3.1971,-3.2003,-3.2032,-3.1981,-3.2185,-3.2204,-3.2222,-3.2287,-3.2313,-3.2008,-3.2007,-3.2006,-3.2006,0,-3.1388,-3.1473,-3.155,-3.1625,-3.1676,-3.1775,-3.1781,-3.1835,-3.1821,-3.1834,-3.1955,-3.1994,-3.2074,-3.2107,-3.2096,-3.2253,-3.2228,-3.2185,-3.2109,-3.2255,-3.2316,-3.2341,-3.2017,-3.2014,-3.2012,-3.2011,0,0,-3.1616,-3.1683,-3.1712,-3.1745,-3.1803,-3.1869,-3.1966,-3.2043,-3.209,-3.2144,-3.2227,-3.2338,-3.2299,-3.2343,-3.2335,-3.2405,-3.2553,-3.2353,-3.2354,-3.2391,-3.273,-3.2764,-3.2793,-3.2533,-3.2537,-3.2541,-3.2726,0,-3.1793,-3.1963,-3.1957,-3.2116,-3.2195,-3.2155,-3.224,-3.2285,-3.23,-3.237,-3.2386,-3.2466,-3.2407,-3.2433,-3.25,-3.2521,-3.2621,-3.2507,-3.2611,-3.2615,-3.2601,-3.2825,-3.286,-3.3033,-3.275,-3.2754,-3.2757,0,-3.2024,-3.2085,-3.2252,-3.2298,-3.2331,-3.2408,-3.2478,-3.2545,-3.2595,-3.2601,-3.2649,-3.2631,-3.273,-3.2649,-3.2788,-3.271,-3.2752,-3.2768,-3.2775,-3.2786,-3.2696,-3.2844,-3.3088,-3.3115,-3.2794,-3.2791,-3.2789,0,-3.2176,-3.23,-3.2416,-3.2445,-3.2502,-3.2557,-3.2583,-3.2629,-3.2676,-3.2737,-3.2768,-3.284,-3.2881,-3.2938,-3.294,-3.288,-3.308,-3.2999,-3.3089,-3.3089,-3.3135,-3.3132,-3.3391,-3.3158,-3.3158,-3.3157,-3.3157,0,-3.2376,-3.248,-3.2485,-3.2557,-3.2672,-3.2664,-3.2779,-3.2799,-3.284,-3.2916,-3.2886,-3.2958,-3.2954,-3.3028,-3.3029,-3.3145,-3.3163,-3.3171,-3.3171,-3.3175,-3.3175,-3.3204,-3.3193,-3.3164,-3.3163,-3.3161,-3.316,0,-3.2567,-3.2574,-3.2698,-3.2741,-3.2754,-3.2838,-3.2875,-3.2944,-3.2954,-3.3051,-3.3073,-3.3091,-3.3176,-3.3182,-3.328,-3.3282,-3.3422,-3.3407,-3.3405,-3.3403,-3.3493,-3.3486,-3.3782,-3.3821,-3.3561,-3.3564,-3.3566,0,-3.2695,-3.2774,-3.2825,-3.2874,-3.2903,-3.2981,-3.3028,-3.3023,-3.3074,-3.3137,-3.3199,-3.328,-3.3345,-3.3482,-3.3505,-3.358,-3.3568,-3.3667,-3.358,-3.3582,-3.3572,-3.3569,-3.3577,-3.3685,-3.3688,-3.369,-3.3692,0,-3.2923,-3.2922,-3.2991,-3.3063,-3.312,-3.3176,-3.3228,-3.3269,-3.327,-3.3329,-3.3414,-3.3465,-3.3565,-3.3647,-3.372,-3.3748,-3.3722,-3.3719,-3.3744,-3.3751,-3.3747,-3.3752,-3.3454,-3.3713,-3.3711,-3.3709,-3.3708,-3.3707,-3.3088,-3.3156,-3.3203,-3.3282,-3.332,-3.3369,-3.3436,-3.3455,-3.3526,-3.3607,-3.3599,-3.3695,-3.3744,-3.3839,-3.3873,-3.3948,-3.3915,-3.3951,-3.396,-3.397,-3.398,-3.3733,-3.3961,-3.3961,-3.396,-3.3959,-3.3959,0,-3.3315,-3.3343,-3.3415,-3.3489,-3.3551,-3.3518,-3.3574,-3.3629,-3.3713,-3.376,-3.3824,-3.3924,-3.4003,-3.4031,-3.4109,-3.4164,-3.4153,-3.4184,-3.4181,-3.4189,-3.4005,-3.3976,-3.4191,-3.4191,-3.4191,-3.4191,-3.4191,-3.4191,-3.3441,-3.3557,-3.3562,-3.3696,-3.3723,-3.3816,-3.3851,-3.3897,-3.3934,-3.4046,-3.4112,-3.4129,-3.4169,-3.4249,-3.4321,-3.4327,-3.4358,-3.4395,-3.4397,-3.4225,-3.4201,-3.4179,-3.4152,-3.4401,-3.4401,-3.4574,-3.4576,-3.4577]},{"header":{"parameterUnit":"m.s-1","parameterCategory":1,"la1":30.2991,"la2":30.254,"lo1":-89.0895,"lo2":-89.0444,"dy":0.0017,"dx":0.0017,"nx":28,"ny":28,"refTime":"2023-11-12T09:00:00:Z","depth":0,"parameterNumber":3,"parameterNumberName":"V-component_of_WINDS"},"data":[0,0,0,0,0,0,0,0,0,0,0,0,0,0,0,0,0,0,0,0,0,0,0,0,0,0,0,0,0,0,0,0,0,0,0,0,0,0,0,0,0,0,0,0,0,0,0,0,0,0,0,0,0,0,0,0,0,0,-3.6608,-3.6608,0,-3.6574,-3.6574,-3.6573,-3.6508,-3.6507,-3.6505,-3.6504,-3.647,-3.647,-3.647,0,0,0,0,0,0,0,0,0,0,0,0,0,-3.6618,-3.6618,-3.6609,-3.6608,-3.6608,-3.6574,-3.6574,-3.6573,-3.6508,-3.6507,-3.6505,-3.6504,-3.6469,-3.647,-3.647,0,0,0,0,0,0,0,0,0,0,0,0,0,-3.6602,-3.6618,-3.6609,-3.6571,-3.6567,-3.6574,-3.6574,-3.6573,-3.6509,-3.6507,-3.6505,-3.6503,-3.6469,-3.647,-3.647,-3.6511,0,0,-3.6471,-3.6471,0,0,0,0,0,0,0,0,-3.6603,-3.6601,-3.6577,-3.6574,-3.657,-3.6543,-3.6564,-3.6552,-3.6509,-3.6531,-3.6504,-3.6502,-3.6496,-3.6494,-3.6492,-3.6509,-3.6508,-3.6471,-3.6472,-3.6472,-3.6472,0,0,0,0,0,0,0,-3.6604,-3.6602,-3.6595,-3.6577,-3.6572,-3.6556,-3.6552,-3.6561,-3.6524,-3.6529,-3.6524,-3.6521,-3.6493,-3.6491,-3.649,-3.6507,-3.6471,-3.6472,-3.6472,-3.6472,-3.6554,-3.6556,0,0,0,0,0,0,-3.661,-3.6604,-3.6596,-3.6594,-3.6582,-3.6557,-3.6552,-3.6554,-3.6524,-3.6518,-3.6523,-3.6518,-3.6492,-3.649,-3.6489,-3.6533,-3.6472,-3.6472,-3.6472,-3.6552,-3.6555,-3.6557,0,0,0,0,0,0,-3.6611,-3.661,-3.6597,-3.6597,-3.6595,-3.6559,-3.6561,-3.6554,-3.6552,-3.6519,-3.6512,-3.6527,-3.649,-3.6488,-3.6505,-3.6531,-3.6472,-3.6473,-3.655,-3.6553,-3.6556,-3.6623,0,0,0,0,0,0,-3.6611,-3.6611,-3.6626,-3.6598,-3.6595,-3.6615,-3.6563,-3.6555,-3.6553,-3.6546,-3.6522,-3.6516,-3.6488,-3.6505,-3.6506,-3.653,-3.6473,-3.6547,-3.6551,-3.6555,-3.6618,-3.6628,-3.6636,0,0,0,0,0,-3.6612,-3.6647,-3.6627,-3.6627,-3.6613,-3.6616,-3.6614,-3.6582,-3.6555,-3.657,-3.6549,-3.6517,-3.6528,-3.6507,-3.6507,-3.6533,-3.6546,-3.655,-3.6554,-3.6614,-3.6626,-3.6636,0,0,0,0,0,0,-3.6679,-3.6643,-3.662,-3.6647,-3.6635,-3.6605,-3.6623,-3.6595,-3.6591,-3.6585,-3.6545,-3.654,-3.6562,-3.6549,-3.6526,-3.6569,-3.6532,-3.6536,-3.6577,-3.6588,-3.6597,-3.6599,-3.6473,0,0,0,0,0,-3.6697,-3.6703,-3.667,-3.6697,-3.6693,-3.6659,-3.6659,-3.6635,-3.6621,-3.6616,-3.6596,-3.6584,-3.6584,-3.6585,-3.6584,-3.6616,-3.6609,-3.6633,-3.6642,-3.6649,-3.6654,-3.6668,-3.6678,-3.6571,-3.6571,-3.6571,0,0,-3.6734,-3.6715,-3.6721,-3.671,-3.6698,-3.6705,-3.6655,-3.6665,-3.6669,-3.6617,-3.6632,-3.6617,-3.66,-3.6624,-3.6634,-3.6614,-3.6682,-3.6655,-3.6661,-3.6661,-3.6674,-3.6684,-3.6693,-3.6574,-3.6573,-3.6573,0,0,-3.6805,-3.6792,-3.6812,-3.68,-3.6782,-3.676,-3.6765,-3.6738,-3.6726,-3.674,-3.6701,-3.6705,-3.6708,-3.6697,-3.6692,-3.6757,-3.6728,-3.6758,-3.6804,-3.6819,-3.6827,-3.6835,-3.6857,-3.6866,-3.6763,-3.6763,-3.6763,0,-3.6854,-3.6862,-3.6826,-3.6837,-3.6833,-3.6786,-3.6806,-3.6797,-3.678,-3.6778,-3.6756,-3.6756,-3.6742,-3.6762,-3.6778,-3.6776,-3.678,-3.6761,-3.6829,-3.6836,-3.6842,-3.6863,-3.6872,-3.6767,-3.6766,-3.6766,-3.6765,0,-3.6922,-3.6928,-3.6947,-3.6931,-3.6929,-3.6944,-3.691,-3.6913,-3.6888,-3.6868,-3.6882,-3.6863,-3.6856,-3.6859,-3.6836,-3.6876,-3.6864,-3.6836,-3.6797,-3.6857,-3.6876,-3.6883,-3.6772,-3.6771,-3.677,-3.6769,0,0,-3.7035,-3.6998,-3.7005,-3.6996,-3.6972,-3.6976,-3.699,-3.6983,-3.6985,-3.6975,-3.6984,-3.6986,-3.696,-3.6954,-3.6929,-3.6942,-3.6993,-3.6912,-3.6911,-3.6927,-3.7035,-3.7056,-3.7066,-3.6973,-3.6975,-3.6976,-3.7036,0,-3.71,-3.712,-3.7087,-3.7115,-3.712,-3.7074,-3.7086,-3.7072,-3.7053,-3.7054,-3.7033,-3.7034,-3.7,-3.6996,-3.7007,-3.6985,-3.7014,-3.698,-3.6981,-3.6982,-3.6986,-3.7076,-3.7098,-3.7156,-3.7043,-3.7045,-3.7045,0,-3.7179,-3.7171,-3.7199,-3.7172,-3.7173,-3.7184,-3.7174,-3.7176,-3.7159,-3.7144,-3.7137,-3.7107,-3.7117,-3.708,-3.7093,-3.707,-3.7069,-3.7058,-3.7059,-3.7058,-3.7017,-3.7076,-3.7173,-3.7182,-3.7057,-3.7056,-3.7055,0,-3.7257,-3.7254,-3.727,-3.7264,-3.7234,-3.7242,-3.723,-3.7211,-3.7208,-3.72,-3.7198,-3.7191,-3.7187,-3.7182,-3.7151,-3.7126,-3.7167,-3.7127,-3.7154,-3.7155,-3.7165,-3.7164,-3.7263,-3.7165,-3.7165,-3.7165,-3.7165,0,-3.7333,-3.7352,-3.7305,-3.7315,-3.7334,-3.7296,-3.7316,-3.7299,-3.7282,-3.7287,-3.7248,-3.7254,-3.7212,-3.7213,-3.7188,-3.7202,-3.7201,-3.7189,-3.7182,-3.7192,-3.7193,-3.719,-3.7185,-3.7167,-3.7166,-3.7166,-3.7166,0,-3.7424,-3.7393,-3.7407,-3.7377,-3.737,-3.7385,-3.7358,-3.7366,-3.7344,-3.7351,-3.735,-3.7316,-3.7315,-3.7283,-3.7275,-3.7259,-3.7282,-3.7268,-3.7288,-3.7283,-3.7312,-3.7309,-3.7411,-3.7422,-3.7318,-3.7319,-3.732,0,-3.7474,-3.7487,-3.7458,-3.7458,-3.7448,-3.7449,-3.7446,-3.7409,-3.7407,-3.7388,-3.7398,-3.7393,-3.7388,-3.7388,-3.7362,-3.7356,-3.7341,-3.7377,-3.734,-3.7349,-3.734,-3.734,-3.734,-3.7385,-3.7386,-3.7387,-3.7388,0,-3.7566,-3.755,-3.7547,-3.7539,-3.7536,-3.7528,-3.7517,-3.752,-3.7479,-3.7479,-3.7477,-3.7473,-3.7464,-3.746,-3.7449,-3.7435,-3.7405,-3.74,-3.7406,-3.7416,-3.7426,-3.742,-3.7309,-3.7398,-3.7397,-3.7396,-3.7396,-3.7395,-3.7638,-3.7647,-3.7627,-3.7625,-3.7612,-3.7603,-3.7608,-3.7586,-3.7584,-3.7574,-3.7552,-3.7554,-3.7535,-3.7516,-3.7505,-3.7506,-3.7487,-3.7496,-3.7498,-3.75,-3.7506,-3.7427,-3.7503,-3.7503,-3.7503,-3.7503,-3.7502,0,-3.7727,-3.7712,-3.771,-3.7696,-3.7694,-3.7665,-3.7651,-3.7651,-3.7653,-3.7638,-3.7633,-3.763,-3.7625,-3.7599,-3.7591,-3.7596,-3.7582,-3.7595,-3.7594,-3.7591,-3.7523,-3.7518,-3.7607,-3.7607,-3.7607,-3.7607,-3.7607,-3.7607,-3.7773,-3.7787,-3.7768,-3.7775,-3.7759,-3.776,-3.7754,-3.7745,-3.7732,-3.7731,-3.7727,-3.7709,-3.7689,-3.7679,-3.7674,-3.7666,-3.7664,-3.7682,-3.767,-3.7606,-3.7596,-3.7587,-3.7582,-3.7683,-3.7683,-3.7738,-3.7739,-3.7739]}]]